Bahrain International Airport
OBBI : now visible

Aeroporto :











RITROVATECI SU...

 
LOGIN :

Iscrizione | Disclaimer

   EN    FR    IT 

 









Sommario :    VFR   VFR Marginale   IFR   IFR Intensivo   IFR Molto Intensivo
Visibilità : 
Base nubi : 
>= 8 km
>= 3000ft
5 / 8 km
1000 / 3000 ft
1500m / 5 km
500 / 1000 ft
800 / 1500m
200 / 500 ft
< 800m
< 200 ft
Simboli :   Temporali  Nebbia  Neve Forte  Precipitazioni Forti  Vento > 20 kt







- Altitudine del aeroporto : 6 ft
- Codice IATA : BAH


OBBI - Bahrain International

ULTIMO METAR :
  • 172200Z 28008KT CAVOK 34/19 Q0998 NOSIG

METARs OBSOLETI :
  • 172130Z 28006KT CAVOK 34/21 Q0998 NOSIG
  • 172100Z 28007KT CAVOK 34/23 Q0998 NOSIG
  • 172030Z 27007KT CAVOK 34/21 Q0998 NOSIG
  • 172000Z 29007KT CAVOK 35/19 Q0998 NOSIG
  • 171930Z 29007KT CAVOK 34/21 Q0998 NOSIG

TAF TAF OBBI
Valido dal 17 a 18 ore il 19 a 00 ore UTC


171700Z 1718/1900 32012KT CAVOK
BECMG 1816/1818 VRB05KT
FIR OBBB / Asia



MetMap, La meteo Aeronautica in un colpo d'occhio ! - Copyright ORBIFLY Dicembre 2007 - Disclaimer

ORBIFLY MET'MAP TEAM :

Programmazione e sviluppo : Alexandra Zaïnal
Concezione e sviluppo : Baudouin d'Aumeries
Co-Programmazione e sviluppo : Marc-Olivier Méhu
Supporto tecnico e logistico : Manuel Goepfert
Aiuto per la traduzione : Arnaldo La Scala

Contatto : metmap@orbifly.com




FONTI E CREDITI :

   NOAA       Earth
Advisory